Wink, TX

1:58 AM CDT on May 26, 2017 (GMT -0500)
Winkler County

Weather History for KINK - December, 2012

Change the Weather History Date:

Wednesday, December 5, 2012

  Actual Average Record
Temperature  
Mean Temperature 51 °F -  
Max Temperature 70 °F 64 °F 79 °F (1951)
Min Temperature 32 °F 32 °F 18 °F (1952)
Degree Days  
Heating Degree Days 14    
Growing Degree Days 1 (Base 50)    
Moisture  
Dew Point 29 °F    
Average Humidity 47    
Maximum Humidity 73    
Minimum Humidity 24    
Precipitation  
Precipitation 0.00 in - - ()
Sea Level Pressure  
Sea Level Pressure 30.11 in    
Wind  
Wind Speed 6 mph (SE)    
Max Wind Speed 15 mph    
Max Gust Speed -    
Visibility 10 miles    
Events      
Averages and records for this station are not official NWS values.
T = Trace of Precipitation, MM = Missing Value Source: NWS Daily Summary

Daily Weather History Graph

Daily Weather History Graph

Search for Another Location

Airport or City:

Trip Planner

Search our weather history database for the weather conditions in past years. The results will help you decide how hot, cold, wet, or windy it might be!

Date:

Astronomy

Dec. 05, 2012 Rise Set
Actual Time 7:38 AM CST 5:48 PM CST
Civil Twilight 7:11 AM CST 6:15 PM CST
Nautical Twilight 6:41 AM CST 6:45 PM CST
Astronomical Twilight 6:12 AM CST 7:15 PM CST
Moon No Moon Rise 12:19 PM CST (12/5)
Length of Visible Light 11h 03m
Length of Day
10h 10m
Waning Gibbous, 59% of the Moon is Illuminated
Dec 5
Waning Gibbous
Dec 6
Last Quarter
Dec 13
New
Dec 19
First Quarter
Dec 28
Full

Hourly Weather History & Observations

Time (CST) Temp. Windchill Dew Point Humidity Pressure Visibility Wind Dir Wind Speed Gust Speed Precip Events Conditions
12:53 AM 37.9 °F 34.4 °F 28.0 °F 68% 30.27 in 10.0 mi North 4.6 mph - N/A   Clear
1:53 AM 36.0 °F 32.1 °F 27.0 °F 70% 30.26 in 10.0 mi NNE 4.6 mph - N/A   Clear
2:53 AM 35.1 °F 29.3 °F 26.1 °F 70% 30.26 in 10.0 mi North 6.9 mph - N/A   Clear
3:53 AM 34.0 °F 29.8 °F 25.0 °F 70% 30.25 in 10.0 mi North 4.6 mph - N/A   Clear
4:53 AM 34.0 °F 28.8 °F 25.0 °F 70% 30.24 in 10.0 mi NNW 5.8 mph - N/A   Clear
5:53 AM 32.0 °F 28.7 °F 24.1 °F 73% 30.25 in 10.0 mi NNE 3.5 mph - N/A   Clear
6:53 AM 32.0 °F - 23.0 °F 69% 30.25 in 10.0 mi Calm Calm - N/A   Clear
8:53 AM 43.0 °F 39.5 °F 26.1 °F 51% 30.26 in 10.0 mi SE 5.8 mph - N/A   Clear
9:53 AM 50.0 °F - 32.0 °F 50% 30.25 in 10.0 mi South 6.9 mph - N/A   Clear
10:53 AM 57.9 °F - 30.0 °F 35% 30.22 in 10.0 mi SSE 13.8 mph - N/A   Clear
11:53 AM 61.0 °F - 28.9 °F 30% 30.18 in 9.0 mi SSE 11.5 mph - N/A   Clear
12:53 PM 64.9 °F - 30.0 °F 27% 30.12 in 10.0 mi SSE 15.0 mph - N/A   Clear
1:53 PM 66.0 °F - 32.0 °F 28% 30.08 in 10.0 mi South 8.1 mph - N/A   Clear
2:53 PM 69.1 °F - 30.9 °F 24% 30.03 in 10.0 mi South 11.5 mph - N/A   Clear
3:53 PM 70.0 °F - 30.9 °F 24% 30.00 in 10.0 mi South 5.8 mph - N/A   Clear
4:53 PM 70.0 °F - 32.0 °F 25% 29.98 in 10.0 mi SSE 8.1 mph - N/A   Clear
5:53 PM 62.1 °F - 32.0 °F 32% 29.98 in 10.0 mi SSE 9.2 mph - N/A   Clear
6:53 PM 55.9 °F - 30.9 °F 39% 29.99 in 10.0 mi SE 9.2 mph - N/A   Clear
7:53 PM 54.0 °F - 30.9 °F 41% 29.99 in 10.0 mi SSE 6.9 mph - N/A   Clear
8:53 PM 52.0 °F - 30.0 °F 43% 29.96 in 10.0 mi SSE 9.2 mph - N/A   Clear
9:53 PM 51.1 °F - 30.0 °F 44% 29.95 in 10.0 mi SSE 6.9 mph - N/A   Clear
10:53 PM 48.9 °F - 30.0 °F 48% 29.92 in 10.0 mi SE 6.9 mph - N/A   Clear
11:53 PM 44.1 °F 42.5 °F 28.9 °F 55% 29.92 in 10.0 mi SSW 3.5 mph - N/A   Clear